| time (UTC) | temp F | wind direction | speed MPH | gust MPH | rain 1hr in | rain 24hr in | rain mn in | humidity % | barometer mb |
| 20260510223503 | 67 | 285 | 2.0 | 7.0 | 0.00 | 0.00 | 0.00 | 74 | 1014.4 |
| 20260510223004 | 68 | 212 | 1.0 | 3.0 | 0.00 | 0.00 | 0.00 | 74 | 1014.4 |
| 20260510222503 | 68 | 192 | 1.0 | 4.0 | 0.00 | 0.00 | 0.00 | 73 | 1014.4 |
| 20260510222003 | 68 | 183 | 1.0 | 4.0 | 0.00 | 0.00 | 0.00 | 73 | 1014.3 |
| 20260510221504 | 68 | 168 | 1.0 | 4.0 | 0.00 | 0.00 | 0.00 | 72 | 1014.3 |
| 20260510221003 | 68 | 159 | 1.0 | 4.0 | 0.00 | 0.00 | 0.00 | 71 | 1014.2 |
| 20260510220503 | 68 | 195 | 0.0 | 2.0 | 0.00 | 0.00 | 0.00 | 70 | 1014.2 |
| 20260510220004 | 68 | 222 | 0.0 | 1.0 | 0.00 | 0.00 | 0.00 | 70 | 1014.2 |
| 20260510215503 | 68 | 223 | 0.0 | 1.0 | 0.00 | 0.00 | 0.00 | 70 | 1014.0 |
| 20260510215003 | 68 | 223 | 0.0 | 1.0 | 0.00 | 0.00 | 0.00 | 70 | 1014.1 |
| 20260510214503 | 68 | 225 | 0.0 | 1.0 | 0.00 | 0.00 | 0.00 | 70 | 1013.9 |
| 20260510214003 | 68 | 220 | 0.0 | 3.0 | 0.00 | 0.00 | 0.00 | 70 | 1013.9 |
| 20260510213503 | 69 | 216 | 1.0 | 3.0 | 0.00 | 0.00 | 0.00 | 70 | 1014.1 |
| 20260510213003 | 69 | 212 | 1.0 | 3.0 | 0.00 | 0.00 | 0.00 | 70 | 1013.8 |
| 20260510212503 | 69 | 216 | 1.0 | 3.0 | 0.00 | 0.00 | 0.00 | 70 | 1013.7 |
| 20260510212003 | 69 | 206 | 2.0 | 6.0 | 0.00 | 0.00 | 0.00 | 71 | 1014.2 |
| 20260510211503 | 69 | 192 | 2.0 | 7.0 | 0.00 | 0.00 | 0.00 | 71 | 1014.1 |
| 20260510211003 | 69 | 177 | 2.0 | 7.0 | 0.00 | 0.00 | 0.00 | 70 | 1014.1 |
| 20260510210503 | 69 | 157 | 2.0 | 6.0 | 0.00 | 0.00 | 0.00 | 68 | 1014.1 |
| 20260510210004 | 69 | 60 | 3.0 | 9.0 | 0.00 | 0.00 | 0.00 | 68 | 1013.9 |
| 20260510205503 | 69 | 349 | 2.0 | 9.0 | 0.00 | 0.00 | 0.00 | 68 | 1013.9 |
| 20260510205217 | 70 | 302 | 2.0 | 7.0 | 0.00 | 0.00 | 0.00 | 67 | 1014.0 |
| 20260510204503 | 70 | 234 | 1.0 | 3.0 | 0.00 | 0.00 | 0.00 | 66 | 1013.9 |
| 20260510204004 | 70 | 241 | 1.0 | 3.0 | 0.00 | 0.00 | 0.00 | 66 | 1013.9 |
| 20260510203503 | 69 | 223 | 1.0 | 4.0 | 0.00 | 0.00 | 0.00 | 66 | 1013.5 |
| 20260510203214 | 69 | 219 | 2.0 | 8.0 | 0.00 | 0.00 | 0.00 | 66 | 1013.6 |
| 20260510202503 | 69 | 206 | 3.0 | 10.0 | 0.00 | 0.00 | 0.00 | 68 | 1013.5 |
| 20260510202003 | 69 | 204 | 5.0 | 10.0 | 0.00 | 0.00 | 0.00 | 68 | 1013.6 |
| 20260510201718 | 70 | 206 | 5.0 | 10.0 | 0.00 | 0.00 | 0.00 | 68 | 1013.4 |
| 20260510201003 | 70 | 212 | 4.0 | 10.0 | 0.00 | 0.00 | 0.00 | 67 | 1013.4 |
| 20260510200504 | 69 | 210 | 4.0 | 9.0 | 0.00 | 0.00 | 0.00 | 67 | 1013.3 |
| 20260510200003 | 69 | 210 | 4.0 | 9.0 | 0.00 | 0.00 | 0.00 | 68 | 1013.1 |
| 20260510195506 | 69 | 215 | 3.0 | 10.0 | 0.00 | 0.00 | 0.00 | 69 | 1013.0 |
| 20260510195004 | 69 | 209 | 4.0 | 10.0 | 0.00 | 0.00 | 0.00 | 69 | 1013.1 |
| 20260510194503 | 69 | 211 | 4.0 | 14.0 | 0.00 | 0.00 | 0.00 | 69 | 1012.9 |
| 20260510194213 | 69 | 214 | 4.0 | 14.0 | 0.00 | 0.00 | 0.00 | 69 | 1013.0 |
| 20260510193504 | 69 | 218 | 3.0 | 8.0 | 0.00 | 0.00 | 0.00 | 69 | 1013.0 |
| 20260510193003 | 69 | 208 | 4.0 | 13.0 | 0.00 | 0.00 | 0.00 | 69 | 1012.8 |
| 20260510192504 | 69 | 206 | 6.0 | 15.0 | 0.00 | 0.00 | 0.00 | 69 | 1012.9 |
| 20260510192004 | 69 | 204 | 6.0 | 16.0 | 0.00 | 0.00 | 0.00 | 69 | 1012.8 |
| 20260510191504 | 69 | 198 | 6.0 | 16.0 | 0.00 | 0.00 | 0.00 | 69 | 1012.5 |
| 20260510191004 | 69 | 193 | 6.0 | 16.0 | 0.00 | 0.00 | 0.00 | 68 | 1012.6 |
| 20260510190714 | 69 | 199 | 6.0 | 18.0 | 0.00 | 0.00 | 0.00 | 68 | 1012.6 |
| 20260510190004 | 69 | 202 | 8.0 | 23.0 | 0.00 | 0.00 | 0.00 | 68 | 1012.7 |
| 20260510185715 | 69 | 203 | 7.0 | 23.0 | 0.00 | 0.00 | 0.00 | 68 | 1012.4 |
| 20260510185005 | 69 | 201 | 7.0 | 17.0 | 0.00 | 0.00 | 0.00 | 68 | 1012.4 |
| 20260510184503 | 69 | 202 | 8.0 | 21.0 | 0.00 | 0.00 | 0.00 | 68 | 1012.5 |
| 20260510184214 | 69 | 207 | 8.0 | 21.0 | 0.00 | 0.00 | 0.00 | 68 | 1012.6 |
| 20260510183503 | 69 | 205 | 6.0 | 15.0 | 0.00 | 0.00 | 0.00 | 66 | 1012.7 |
| 20260510183004 | 70 | 207 | 6.0 | 15.0 | 0.00 | 0.00 | 0.00 | 65 | 1012.5 |
| 20260510182503 | 70 | 210 | 6.0 | 15.0 | 0.00 | 0.00 | 0.00 | 64 | 1012.6 |
| 20260510182003 | 70 | 212 | 6.0 | 15.0 | 0.00 | 0.00 | 0.00 | 64 | 1012.6 |
| 20260510181503 | 70 | 205 | 7.0 | 21.0 | 0.00 | 0.00 | 0.00 | 63 | 1012.5 |
| 20260510181004 | 70 | 195 | 9.0 | 23.0 | 0.00 | 0.00 | 0.00 | 63 | 1012.5 |
| 20260510180503 | 70 | 192 | 9.0 | 24.0 | 0.00 | 0.00 | 0.00 | 63 | 1012.3 |
| 20260510180005 | 71 | 192 | 10.0 | 24.0 | 0.00 | 0.00 | 0.00 | 61 | 1012.4 |
| 20260510175503 | 71 | 197 | 9.0 | 22.0 | 0.00 | 0.00 | 0.00 | 59 | 1012.3 |
| 20260510175004 | 71 | 206 | 8.0 | 19.0 | 0.00 | 0.00 | 0.00 | 60 | 1012.4 |
| 20260510174504 | 71 | 201 | 7.0 | 18.0 | 0.00 | 0.00 | 0.00 | 59 | 1012.1 |
| 20260510174004 | 71 | 182 | 7.0 | 19.0 | 0.00 | 0.00 | 0.00 | 58 | 1012.3 |
| 20260510173504 | 72 | 193 | 8.0 | 19.0 | 0.00 | 0.00 | 0.00 | 58 | 1012.4 |
| 20260510173004 | 72 | 202 | 8.0 | 21.0 | 0.00 | 0.00 | 0.00 | 58 | 1012.2 |
| 20260510172504 | 72 | 198 | 9.0 | 21.0 | 0.00 | 0.00 | 0.00 | 60 | 1012.4 |
| 20260510172217 | 72 | 192 | 10.0 | 23.0 | 0.00 | 0.00 | 0.00 | 59 | 1012.3 |
| 20260510171503 | 72 | 195 | 8.0 | 23.0 | 0.00 | 0.00 | 0.00 | 58 | 1012.3 |
| 20260510171003 | 72 | 210 | 7.0 | 22.0 | 0.00 | 0.00 | 0.00 | 59 | 1012.4 |
| 20260510170503 | 72 | 209 | 8.0 | 22.0 | 0.00 | 0.00 | 0.00 | 59 | 1012.8 |
| 20260510170006 | 72 | 204 | 9.0 | 19.0 | 0.00 | 0.00 | 0.00 | 59 | 1012.7 |
| 20260510165503 | 71 | 208 | 10.0 | 21.0 | 0.00 | 0.00 | 0.00 | 60 | 1012.5 |
| 20260510165005 | 72 | 204 | 9.0 | 21.0 | 0.00 | 0.00 | 0.00 | 60 | 1012.7 |
| 20260510164504 | 72 | 208 | 7.0 | 19.0 | 0.00 | 0.00 | 0.00 | 59 | 1012.9 |
| 20260510164003 | 72 | 221 | 6.0 | 19.0 | 0.00 | 0.00 | 0.00 | 59 | 1012.7 |
| 20260510163509 | 73 | 215 | 6.0 | 19.0 | 0.00 | 0.00 | 0.00 | 57 | 1012.8 |
| 20260510163216 | 73 | 207 | 7.0 | 19.0 | 0.00 | 0.00 | 0.00 | 56 | 1012.9 |
| 20260510162503 | 72 | 205 | 7.0 | 18.0 | 0.00 | 0.00 | 0.00 | 59 | 1012.7 |
| 20260510162003 | 72 | 202 | 7.0 | 18.0 | 0.00 | 0.00 | 0.00 | 59 | 1013.1 |
| 20260510161504 | 72 | 196 | 6.0 | 15.0 | 0.00 | 0.00 | 0.00 | 60 | 1013.1 |
| 20260510161004 | 72 | 194 | 5.0 | 15.0 | 0.00 | 0.00 | 0.00 | 60 | 1013.1 |
| 20260510160716 | 72 | 191 | 5.0 | 18.0 | 0.00 | 0.00 | 0.00 | 60 | 1013.0 |
| 20260510160004 | 73 | 196 | 6.0 | 18.0 | 0.00 | 0.00 | 0.00 | 58 | 1013.3 |
| 20260510155504 | 73 | 206 | 6.0 | 18.0 | 0.00 | 0.00 | 0.00 | 56 | 1012.9 |
| 20260510155215 | 73 | 204 | 6.0 | 18.0 | 0.00 | 0.00 | 0.00 | 58 | 1013.0 |
| 20260510154503 | 74 | 201 | 7.0 | 18.0 | 0.00 | 0.00 | 0.00 | 57 | 1013.0 |
| 20260510154216 | 74 | 200 | 8.0 | 18.0 | 0.00 | 0.00 | 0.00 | 55 | 1013.2 |
| 20260510153714 | 73 | 197 | 8.0 | 18.0 | 0.00 | 0.00 | 0.00 | 55 | 1013.3 |
| 20260510153004 | 74 | 204 | 8.0 | 21.0 | 0.00 | 0.00 | 0.00 | 54 | 1013.2 |
| 20260510152503 | 74 | 210 | 7.0 | 21.0 | 0.00 | 0.00 | 0.00 | 53 | 1013.2 |
| 20260510152003 | 74 | 202 | 6.0 | 16.0 | 0.00 | 0.00 | 0.00 | 54 | 1013.3 |
| 20260510151503 | 75 | 199 | 5.0 | 16.0 | 0.00 | 0.00 | 0.00 | 54 | 1013.3 |
| 20260510151003 | 75 | 218 | 4.0 | 13.0 | 0.00 | 0.00 | 0.00 | 53 | 1013.3 |
| 20260510150506 | 74 | 204 | 7.0 | 18.0 | 0.00 | 0.00 | 0.00 | 53 | 1013.4 |
| 20260510150004 | 74 | 193 | 9.0 | 19.0 | 0.00 | 0.00 | 0.00 | 53 | 1013.3 |
| 20260510145718 | 74 | 196 | 10.0 | 21.0 | 0.00 | 0.00 | 0.00 | 53 | 1013.2 |
| 20260510145003 | 74 | 205 | 9.0 | 21.0 | 0.00 | 0.00 | 0.00 | 51 | 1013.3 |
| 20260510144505 | 74 | 200 | 8.0 | 21.0 | 0.00 | 0.00 | 0.00 | 52 | 1013.3 |
| 20260510144003 | 74 | 199 | 6.0 | 19.0 | 0.00 | 0.00 | 0.00 | 51 | 1013.5 |
| 20260510143503 | 75 | 200 | 8.0 | 22.0 | 0.00 | 0.00 | 0.00 | 52 | 1013.5 |
| 20260510143003 | 74 | 197 | 8.0 | 23.0 | 0.00 | 0.00 | 0.00 | 54 | 1013.7 |
| 20260510142504 | 75 | 199 | 7.0 | 23.0 | 0.00 | 0.00 | 0.00 | 52 | 1013.7 |
| 20260510142005 | 74 | 208 | 7.0 | 18.0 | 0.00 | 0.00 | 0.00 | 53 | 1013.6 |
| 20260510141504 | 74 | 201 | 7.0 | 18.0 | 0.00 | 0.00 | 0.00 | 51 | 1013.7 |
| 20260510141004 | 74 | 203 | 6.0 | 17.0 | 0.00 | 0.00 | 0.00 | 59 | 1013.7 |
| 20260510140503 | 74 | 212 | 5.0 | 17.0 | 0.00 | 0.00 | 0.00 | 59 | 1014.1 |
| 20260510140004 | 74 | 207 | 5.0 | 15.0 | 0.00 | 0.00 | 0.00 | 59 | 1014.0 |
| 20260510135503 | 74 | 205 | 5.0 | 14.0 | 0.00 | 0.00 | 0.00 | 62 | 1014.0 |
| 20260510135003 | 74 | 200 | 6.0 | 15.0 | 0.00 | 0.00 | 0.00 | 61 | 1014.0 |
| 20260510134714 | 74 | 199 | 6.0 | 16.0 | 0.00 | 0.00 | 0.00 | 61 | 1014.3 |
| 20260510134003 | 74 | 206 | 6.0 | 19.0 | 0.00 | 0.00 | 0.00 | 61 | 1014.0 |
| 20260510133506 | 74 | 198 | 6.0 | 14.0 | 0.00 | 0.00 | 0.00 | 61 | 1014.2 |
| 20260510133003 | 74 | 194 | 5.0 | 14.0 | 0.00 | 0.00 | 0.00 | 58 | 1014.0 |
| 20260510132504 | 74 | 207 | 5.0 | 18.0 | 0.00 | 0.00 | 0.00 | 62 | 1014.2 |
| 20260510132003 | 74 | 210 | 5.0 | 18.0 | 0.00 | 0.00 | 0.00 | 63 | 1014.1 |
| 20260510131503 | 74 | 200 | 6.0 | 16.0 | 0.00 | 0.00 | 0.00 | 60 | 1014.3 |
| 20260510131003 | 74 | 202 | 6.0 | 16.0 | 0.00 | 0.00 | 0.00 | 58 | 1014.2 |
| 20260510130504 | 74 | 202 | 6.0 | 15.0 | 0.00 | 0.00 | 0.00 | 57 | 1014.6 |
| 20260510130004 | 73 | 202 | 6.0 | 16.0 | 0.00 | 0.00 | 0.00 | 60 | 1014.2 |
| 20260510125503 | 73 | 200 | 8.0 | 21.0 | 0.00 | 0.00 | 0.00 | 60 | 1014.5 |
| 20260510125217 | 73 | 202 | 7.0 | 21.0 | 0.00 | 0.00 | 0.00 | 61 | 1014.4 |
| 20260510124503 | 73 | 200 | 7.0 | 19.0 | 0.00 | 0.00 | 0.00 | 64 | 1014.4 |
| 20260510124213 | 72 | 201 | 6.0 | 16.0 | 0.00 | 0.00 | 0.00 | 65 | 1014.6 |
| 20260510123503 | 74 | 206 | 5.0 | 18.0 | 0.00 | 0.00 | 0.00 | 68 | 1014.9 |
| 20260510123003 | 73 | 202 | 5.0 | 18.0 | 0.00 | 0.00 | 0.00 | 65 | 1014.9 |
| 20260510122503 | 73 | 200 | 4.0 | 10.0 | 0.00 | 0.00 | 0.00 | 68 | 1015.0 |
| 20260510122215 | 73 | 203 | 3.0 | 10.0 | 0.00 | 0.00 | 0.00 | 70 | 1014.9 |
| 20260510121503 | 73 | 203 | 4.0 | 9.0 | 0.00 | 0.00 | 0.00 | 70 | 1015.0 |
| 20260510121003 | 73 | 195 | 5.0 | 10.0 | 0.00 | 0.00 | 0.00 | 72 | 1015.0 |
| 20260510120504 | 73 | 194 | 5.0 | 13.0 | 0.00 | 0.00 | 0.00 | 70 | 1015.2 |
| 20260510120003 | 72 | 195 | 5.0 | 14.0 | 0.00 | 0.00 | 0.00 | 71 | 1015.4 |
| 20260510115504 | 71 | 203 | 5.0 | 14.0 | 0.00 | 0.00 | 0.00 | 73 | 1015.5 |
| 20260510115004 | 71 | 205 | 5.0 | 11.0 | 0.00 | 0.00 | 0.00 | 73 | 1015.3 |
| 20260510114503 | 71 | 199 | 4.0 | 11.0 | 0.00 | 0.00 | 0.00 | 73 | 1015.6 |
| 20260510114003 | 71 | 197 | 5.0 | 11.0 | 0.00 | 0.00 | 0.00 | 75 | 1015.6 |
| 20260510113503 | 71 | 200 | 5.0 | 11.0 | 0.00 | 0.00 | 0.00 | 75 | 1015.6 |
| 20260510113003 | 71 | 198 | 5.0 | 11.0 | 0.00 | 0.00 | 0.00 | 74 | 1015.6 |
| 20260510112503 | 71 | 193 | 5.0 | 13.0 | 0.00 | 0.00 | 0.00 | 73 | 1015.7 |
| 20260510112003 | 72 | 200 | 5.0 | 13.0 | 0.00 | 0.00 | 0.00 | 72 | 1015.6 |
| 20260510111503 | 72 | 201 | 4.0 | 11.0 | 0.00 | 0.00 | 0.00 | 71 | 1015.5 |
| 20260510111003 | 72 | 195 | 4.0 | 11.0 | 0.00 | 0.00 | 0.00 | 71 | 1015.8 |
| 20260510110503 | 72 | 201 | 5.0 | 13.0 | 0.00 | 0.00 | 0.00 | 71 | 1015.7 |
| 20260510110003 | 72 | 201 | 5.0 | 13.0 | 0.00 | 0.00 | 0.00 | 70 | 1015.9 |
| 20260510105504 | 72 | 207 | 5.0 | 13.0 | 0.00 | 0.00 | 0.00 | 69 | 1015.8 |
| 20260510105003 | 72 | 218 | 4.0 | 11.0 | 0.00 | 0.01 | 0.00 | 68 | 1016.0 |
| 20260510104504 | 72 | 210 | 5.0 | 11.0 | 0.00 | 0.03 | 0.00 | 69 | 1015.9 |
| 20260510104004 | 72 | 199 | 4.0 | 11.0 | 0.00 | 0.04 | 0.00 | 69 | 1016.1 |
| 20260510103504 | 72 | 200 | 3.0 | 9.0 | 0.00 | 0.04 | 0.00 | 70 | 1015.8 |
| 20260510103003 | 73 | 201 | 3.0 | 9.0 | 0.00 | 0.04 | 0.00 | 71 | 1016.0 |
| 20260510102504 | 73 | 198 | 3.0 | 9.0 | 0.00 | 0.04 | 0.00 | 70 | 1016.0 |
| 20260510102004 | 72 | 200 | 4.0 | 9.0 | 0.00 | 0.04 | 0.00 | 70 | 1016.1 |
| 20260510101503 | 72 | 206 | 3.0 | 9.0 | 0.00 | 0.05 | 0.00 | 69 | 1015.8 |
| 20260510101003 | 72 | 200 | 3.0 | 9.0 | 0.00 | 0.05 | 0.00 | 70 | 1015.7 |
| 20260510100503 | 72 | 198 | 3.0 | 10.0 | 0.00 | 0.05 | 0.00 | 71 | 1015.9 |
| 20260510100003 | 72 | 194 | 4.0 | 10.0 | 0.00 | 0.05 | 0.00 | 70 | 1015.6 |
| 20260510095503 | 71 | 175 | 5.0 | 9.0 | 0.00 | 0.05 | 0.00 | 72 | 1015.8 |
| 20260510095003 | 72 | 178 | 4.0 | 9.0 | 0.00 | 0.05 | 0.00 | 71 | 1015.6 |
| 20260510094503 | 72 | 185 | 3.0 | 8.0 | 0.00 | 0.05 | 0.00 | 70 | 1015.8 |
| 20260510094003 | 71 | 184 | 3.0 | 8.0 | 0.00 | 0.05 | 0.00 | 71 | 1015.8 |
| 20260510093503 | 72 | 191 | 3.0 | 8.0 | 0.00 | 0.05 | 0.00 | 72 | 1015.7 |
| 20260510093004 | 73 | 189 | 2.0 | 7.0 | 0.00 | 0.05 | 0.00 | 71 | 1015.5 |
| 20260510092504 | 72 | 182 | 2.0 | 7.0 | 0.00 | 0.06 | 0.00 | 70 | 1015.8 |
| 20260510092003 | 72 | 172 | 2.0 | 8.0 | 0.00 | 0.06 | 0.00 | 70 | 1015.7 |
| 20260510091504 | 71 | 166 | 3.0 | 8.0 | 0.00 | 0.06 | 0.00 | 70 | 1015.7 |
| 20260510091003 | 71 | 184 | 3.0 | 8.0 | 0.00 | 0.06 | 0.00 | 70 | 1015.6 |
| 20260510090503 | 72 | 184 | 2.0 | 7.0 | 0.00 | 0.06 | 0.00 | 71 | 1015.9 |
| 20260510090003 | 72 | 165 | 1.0 | 6.0 | 0.00 | 0.07 | 0.00 | 71 | 1015.4 |
| 20260510085716 | 72 | 171 | 1.0 | 6.0 | 0.00 | 0.07 | 0.00 | 70 | 1015.5 |
| 20260510085004 | 70 | 159 | 1.0 | 6.0 | 0.00 | 0.09 | 0.00 | 71 | 1015.3 |
| 20260510084503 | 70 | 108 | 1.0 | 6.0 | 0.00 | 0.10 | 0.00 | 73 | 1015.8 |
| 20260510084004 | 69 | 99 | 1.0 | 4.0 | 0.00 | 0.12 | 0.00 | 74 | 1015.7 |
| 20260510083504 | 71 | 181 | 1.0 | 2.0 | 0.00 | 0.15 | 0.00 | 73 | 1015.7 |
| 20260510083003 | 71 | 177 | 0.0 | 2.0 | 0.00 | 0.18 | 0.00 | 75 | 1015.9 |
| 20260510082504 | 70 | 151 | 0.0 | 2.0 | 0.00 | 0.19 | 0.00 | 76 | 1016.0 |
| 20260510082004 | 69 | 252 | 1.0 | 3.0 | 0.00 | 0.20 | 0.00 | 78 | 1015.9 |
| 20260510081503 | 68 | 339 | 1.0 | 4.0 | 0.00 | 0.24 | 0.00 | 79 | 1016.0 |
| 20260510081003 | 67 | 359 | 1.0 | 4.0 | 0.00 | 0.27 | 0.00 | 79 | 1016.0 |
| 20260510080503 | 68 | 174 | 0.0 | 2.0 | 0.00 | 0.29 | 0.00 | 78 | 1015.9 |
| 20260510080004 | 68 | 207 | 0.0 | 1.0 | 0.00 | 0.29 | 0.00 | 79 | 1016.2 |
| 20260510075503 | 68 | 205 | 0.0 | 1.0 | 0.00 | 0.30 | 0.00 | 80 | 1015.6 |
| 20260510075004 | 67 | 185 | 0.0 | 3.0 | 0.00 | 0.36 | 0.00 | 82 | 1015.9 |
| 20260510074503 | 66 | 170 | 0.0 | 3.0 | 0.00 | 0.42 | 0.00 | 83 | 1016.0 |
| 20260510074003 | 65 | 353 | 1.0 | 4.0 | 0.00 | 0.57 | 0.00 | 84 | 1015.8 |
| 20260510073507 | 65 | 339 | 1.0 | 4.0 | 0.00 | 0.59 | 0.00 | 84 | 1016.1 |
| 20260510073004 | 65 | 78 | 1.0 | 3.0 | 0.00 | 0.60 | 0.00 | 84 | 1016.0 |
| 20260510072504 | 64 | 158 | 1.0 | 3.0 | 0.00 | 0.61 | 0.00 | 85 | 1016.2 |
| 20260510072004 | 64 | 268 | 1.0 | 3.0 | 0.00 | 0.61 | 0.00 | 86 | 1015.9 |
| 20260510071504 | 63 | 283 | 1.0 | 3.0 | 0.00 | 0.61 | 0.00 | 86 | 1015.8 |
| 20260510071003 | 63 | 248 | 1.0 | 2.0 | 0.00 | 0.61 | 0.00 | 87 | 1016.4 |
| 20260510070503 | 62 | 250 | 1.0 | 2.0 | 0.00 | 0.61 | 0.00 | 88 | 1016.0 |
| 20260510070215 | 62 | 247 | 0.0 | 2.0 | 0.00 | 0.61 | 0.00 | 88 | 1015.9 |
| 20260510065718 | 63 | 251 | 0.0 | 1.0 | 0.00 | 0.61 | 0.00 | 88 | 1015.8 |
| 20260510065003 | 62 | 251 | 0.0 | 1.0 | 0.00 | 0.61 | 0.00 | 90 | 1015.9 |
| 20260510064503 | 61 | 0 | 0.0 | 0.0 | 0.00 | 0.61 | 0.00 | 90 | 1015.8 |
| 20260510064003 | 62 | 0 | 0.0 | 0.0 | 0.00 | 0.61 | 0.00 | 91 | 1015.9 |
| 20260510063503 | 61 | 247 | 0.0 | 1.0 | 0.00 | 0.61 | 0.00 | 92 | 1015.7 |
| 20260510063213 | 60 | 244 | 0.0 | 1.0 | 0.00 | 0.61 | 0.00 | 92 | 1015.8 |
| 20260510062508 | 59 | 250 | 1.0 | 2.0 | 0.00 | 0.75 | 0.00 | 92 | 1015.7 |
| 20260510062003 | 59 | 254 | 2.0 | 3.0 | 0.00 | 0.86 | 0.00 | 93 | 1015.8 |
| 20260510061503 | 58 | 264 | 2.0 | 4.0 | 0.00 | 0.90 | 0.00 | 92 | 1015.7 |
| 20260510061003 | 58 | 286 | 1.0 | 4.0 | 0.00 | 0.92 | 0.00 | 92 | 1015.8 |
| 20260510060503 | 58 | 261 | 1.0 | 2.0 | 0.00 | 0.93 | 0.00 | 93 | 1015.6 |
| 20260510060003 | 58 | 254 | 1.0 | 2.0 | 0.00 | 0.93 | 0.00 | 93 | 1015.8 |
| 20260510055503 | 58 | 252 | 1.0 | 2.0 | 0.00 | 0.94 | 0.00 | 93 | 1015.5 |
| 20260510055003 | 58 | 243 | 0.0 | 2.0 | 0.00 | 0.99 | 0.00 | 93 | 1015.4 |
| 20260510054504 | 58 | 0 | 0.0 | 0.0 | 0.00 | 0.99 | 0.00 | 93 | 1015.6 |
| 20260510054003 | 58 | 243 | 0.0 | 1.0 | 0.00 | 1.00 | 0.00 | 93 | 1015.5 |
| 20260510053503 | 57 | 268 | 1.0 | 2.0 | 0.00 | 1.02 | 0.00 | 93 | 1015.4 |
| 20260510053003 | 57 | 272 | 1.0 | 2.0 | 0.00 | 1.06 | 0.00 | 93 | 1015.4 |
| 20260510052503 | 57 | 278 | 1.0 | 2.0 | 0.00 | 1.11 | 0.00 | 93 | 1015.5 |
| 20260510052004 | 57 | 289 | 1.0 | 3.0 | 0.00 | 1.12 | 0.00 | 93 | 1015.2 |
| 20260510051503 | 57 | 326 | 2.0 | 4.0 | 0.00 | 1.36 | 0.00 | 93 | 1015.3 |
| 20260510051003 | 58 | 327 | 1.0 | 4.0 | 0.00 | 1.55 | 0.00 | 93 | 1015.1 |
| 20260510050503 | 58 | 278 | 0.0 | 2.0 | 0.00 | 1.55 | 0.00 | 93 | 1015.3 |
| 20260510050003 | 58 | 259 | 0.0 | 1.0 | 0.00 | 1.55 | 0.00 | 93 | 1015.1 |
| 20260510045503 | 58 | 286 | 1.0 | 3.0 | 0.00 | 1.55 | 0.00 | 93 | 1015.2 |
| 20260510045003 | 58 | 287 | 2.0 | 3.0 | 0.00 | 1.55 | 0.00 | 93 | 1015.2 |
| 20260510044503 | 58 | 274 | 2.0 | 3.0 | 0.00 | 1.55 | 0.00 | 93 | 1015.2 |
| 20260510044003 | 58 | 267 | 1.0 | 3.0 | 0.00 | 1.55 | 0.00 | 93 | 1015.2 |
| 20260510043504 | 58 | 250 | 0.0 | 1.0 | 0.00 | 1.55 | 0.00 | 93 | 1015.3 |
| 20260510043004 | 58 | 253 | 0.0 | 2.0 | 0.00 | 1.55 | 0.00 | 93 | 1015.3 |
| 20260510042503 | 58 | 249 | 1.0 | 2.0 | 0.00 | 1.55 | 0.00 | 93 | 1015.2 |
| 20260510042004 | 58 | 249 | 0.0 | 2.0 | 0.00 | 1.55 | 0.00 | 92 | 1015.3 |
| 20260510041503 | 58 | 252 | 0.0 | 1.0 | 0.00 | 1.55 | 0.00 | 92 | 1015.2 |
| 20260510041003 | 58 | 246 | 0.0 | 2.0 | 0.00 | 1.55 | 0.00 | 92 | 1015.0 |
| 20260510040504 | 58 | 245 | 0.0 | 2.0 | 0.00 | 1.55 | 0.00 | 92 | 1015.1 |
| 20260510040003 | 58 | 239 | 0.0 | 1.0 | 0.00 | 1.55 | 0.00 | 92 | 1014.9 |
| 20260510035503 | 58 | 0 | 0.0 | 0.0 | 0.00 | 1.55 | 0.00 | 92 | 1015.2 |
| 20260510035213 | 58 | 0 | 0.0 | 0.0 | 0.00 | 1.55 | 0.00 | 92 | 1015.3 |
| 20260510034716 | 58 | 0 | 0.0 | 0.0 | 0.00 | 1.55 | 0.00 | 92 | 1015.1 |
| 20260510034004 | 58 | 249 | 1.0 | 2.0 | 0.00 | 1.55 | 0.00 | 92 | 1015.1 |
| 20260510033503 | 58 | 251 | 1.0 | 2.0 | 0.00 | 1.55 | 0.00 | 92 | 1015.1 |
| 20260510033003 | 58 | 250 | 1.0 | 2.0 | 0.00 | 1.55 | 0.00 | 92 | 1015.0 |
| 20260510032504 | 58 | 252 | 1.0 | 2.0 | 0.00 | 1.55 | 0.00 | 92 | 1015.0 |
| 20260510032004 | 58 | 258 | 0.0 | 1.0 | 0.00 | 1.55 | 0.00 | 92 | 1015.1 |
| 20260510031503 | 58 | 270 | 0.0 | 1.0 | 0.00 | 1.55 | 0.00 | 91 | 1014.8 |
| 20260510031216 | 58 | 0 | 0.0 | 0.0 | 0.00 | 1.55 | 0.00 | 91 | 1015.0 |
| 20260510030503 | 58 | 255 | 0.0 | 1.0 | 0.00 | 1.55 | 0.00 | 91 | 1014.9 |
| 20260510030004 | 58 | 255 | 0.0 | 1.0 | 0.00 | 1.55 | 0.00 | 91 | 1015.0 |
| 20260510025505 | 58 | 247 | 0.0 | 2.0 | 0.00 | 1.55 | 0.00 | 91 | 1015.1 |
| 20260510025003 | 59 | 268 | 1.0 | 3.0 | 0.00 | 1.55 | 0.00 | 91 | 1015.0 |
| 20260510024503 | 59 | 275 | 1.0 | 3.0 | 0.00 | 1.55 | 0.00 | 91 | 1015.1 |
| 20260510024004 | 59 | 277 | 2.0 | 3.0 | 0.00 | 1.55 | 0.00 | 91 | 1014.9 |
| 20260510023504 | 59 | 289 | 3.0 | 4.0 | 0.00 | 1.55 | 0.00 | 91 | 1014.9 |
| 20260510023003 | 59 | 297 | 3.0 | 4.0 | 0.00 | 1.55 | 0.00 | 91 | 1015.0 |
| 20260510022504 | 60 | 294 | 3.0 | 4.0 | 0.00 | 1.55 | 0.00 | 91 | 1014.7 |
| 20260510022003 | 59 | 289 | 3.0 | 4.0 | 0.00 | 1.55 | 0.00 | 91 | 1014.8 |
| 20260510021719 | 60 | 282 | 2.0 | 3.0 | 0.00 | 1.55 | 0.00 | 91 | 1014.8 |
| 20260510021004 | 60 | 270 | 1.0 | 3.0 | 0.00 | 1.55 | 0.00 | 91 | 1014.7 |
| 20260510020503 | 59 | 290 | 1.0 | 4.0 | 0.00 | 1.55 | 0.00 | 91 | 1014.6 |
| 20260510020218 | 59 | 292 | 2.0 | 4.0 | 0.00 | 1.55 | 0.00 | 91 | 1014.7 |
| 20260510015504 | 60 | 286 | 2.0 | 4.0 | 0.00 | 1.55 | 0.00 | 91 | 1014.8 |
| 20260510015003 | 60 | 292 | 2.0 | 4.0 | 0.00 | 1.55 | 0.00 | 91 | 1014.7 |
| 20260510014717 | 60 | 297 | 2.0 | 4.0 | 0.00 | 1.55 | 0.00 | 91 | 1014.8 |
| 20260510014003 | 60 | 317 | 2.0 | 4.0 | 0.00 | 1.55 | 0.00 | 91 | 1015.0 |
| 20260510013503 | 60 | 321 | 1.0 | 4.0 | 0.00 | 1.55 | 0.00 | 91 | 1014.7 |
| 20260510013004 | 60 | 301 | 1.0 | 3.0 | 0.00 | 1.55 | 0.00 | 91 | 1014.8 |
| 20260510012503 | 60 | 299 | 2.0 | 3.0 | 0.00 | 1.55 | 0.00 | 91 | 1014.7 |
| 20260510012004 | 60 | 289 | 2.0 | 3.0 | 0.00 | 1.55 | 0.00 | 91 | 1014.9 |
| 20260510011504 | 60 | 285 | 2.0 | 3.0 | 0.00 | 1.55 | 0.00 | 91 | 1014.8 |
| 20260510011003 | 61 | 279 | 1.0 | 2.0 | 0.00 | 1.55 | 0.00 | 91 | 1014.8 |
| 20260510010503 | 61 | 274 | 1.0 | 2.0 | 0.00 | 1.55 | 0.00 | 90 | 1015.0 |
| 20260510010003 | 61 | 262 | 1.0 | 2.0 | 0.00 | 1.55 | 0.00 | 90 | 1014.9 |
| 20260510005504 | 61 | 257 | 2.0 | 4.0 | 0.00 | 1.55 | 0.00 | 90 | 1014.8 |
| 20260510005004 | 61 | 254 | 2.0 | 4.0 | 0.00 | 1.55 | 0.00 | 90 | 1015.0 |
| 20260510004712 | 62 | 252 | 2.0 | 4.0 | 0.00 | 1.55 | 0.00 | 90 | 1014.8 |
| 20260510004003 | 62 | 243 | 1.0 | 3.0 | 0.00 | 1.55 | 0.00 | 89 | 1014.9 |
| 20260510003713 | 63 | 240 | 1.0 | 3.0 | 0.00 | 1.55 | 0.00 | 89 | 1014.9 |
| 20260510003004 | 63 | 214 | 0.0 | 3.0 | 0.00 | 1.55 | 0.00 | 89 | 1015.1 |
| 20260510002504 | 63 | 185 | 0.0 | 3.0 | 0.00 | 1.55 | 0.00 | 89 | 1014.9 |
| 20260510002217 | 63 | 196 | 0.0 | 3.0 | 0.00 | 1.55 | 0.00 | 89 | 1014.8 |
| 20260510001503 | 63 | 206 | 0.0 | 2.0 | 0.00 | 1.55 | 0.00 | 89 | 1014.8 |
| 20260510001003 | 63 | 211 | 1.0 | 2.0 | 0.00 | 1.55 | 0.00 | 88 | 1015.1 |
| 20260510000504 | 62 | 222 | 1.0 | 2.0 | 0.00 | 1.55 | 0.00 | 88 | 1015.1 |
| 20260510000005 | 64 | 223 | 0.0 | 2.0 | 0.00 | 1.55 | 0.00 | 88 | 1015.4 |
| 20260509235503 | 64 | 218 | 1.0 | 2.0 | 0.00 | 1.55 | 0.00 | 88 | 1015.3 |
| 20260509235215 | 64 | 218 | 0.0 | 2.0 | 0.00 | 1.55 | 0.00 | 88 | 1015.1 |
| 20260509234503 | 64 | 223 | 0.0 | 2.0 | 0.00 | 1.55 | 0.00 | 87 | 1015.0 |
| 20260509234216 | 64 | 217 | 1.0 | 2.0 | 0.00 | 1.55 | 0.00 | 87 | 1015.2 |
| 20260509233719 | 64 | 208 | 1.0 | 2.0 | 0.00 | 1.55 | 0.00 | 87 | 1015.3 |
| 20260509233003 | 64 | 222 | 0.0 | 3.0 | 0.00 | 1.55 | 0.00 | 86 | 1015.4 |
| 20260509232503 | 64 | 208 | 1.0 | 3.0 | 0.00 | 1.55 | 0.00 | 86 | 1015.1 |
| 20260509232003 | 64 | 199 | 2.0 | 4.0 | 0.00 | 1.55 | 0.00 | 86 | 1015.4 |
| 20260509231503 | 64 | 195 | 2.0 | 4.0 | 0.00 | 1.55 | 0.00 | 86 | 1015.3 |
| 20260509231214 | 65 | 192 | 2.0 | 4.0 | 0.00 | 1.55 | 0.00 | 85 | 1015.3 |
| 20260509230503 | 65 | 188 | 1.0 | 4.0 | 0.00 | 1.55 | 0.00 | 85 | 1015.3 |
| 20260509230215 | 65 | 186 | 1.0 | 4.0 | 0.00 | 1.55 | 0.00 | 85 | 1015.4 |
| 20260509225505 | 65 | 180 | 1.0 | 3.0 | 0.00 | 1.55 | 0.00 | 84 | 1015.0 |
| 20260509225003 | 64 | 197 | 0.0 | 2.0 | 0.00 | 1.55 | 0.00 | 84 | 1015.2 |
| 20260509224503 | 64 | 208 | 0.0 | 1.0 | 0.00 | 1.55 | 0.00 | 84 | 1015.3 |
| 20260509224003 | 64 | 207 | 0.0 | 3.0 | 0.00 | 1.55 | 0.00 | 84 | 1015.3 |